[{"OBJECT_NAME":"FENGYUN 1C DEB","OBJECT_ID":"1999-025EHH","EPOCH":"2026-09-08T12:12:17.330688","MEAN_MOTION":14.19434125,"ECCENTRICITY":0.00579602,"INCLINATION":99.0131,"RA_OF_ASC_NODE":344.4028,"ARG_OF_PERICENTER":54.6917,"MEAN_ANOMALY":10.2283,"EPHEMERIS_TYPE":0,"CLASSIFICATION_TYPE":"U","NORAD_CAT_ID":37439,"ELEMENT_SET_NO":999,"REV_AT_EPOCH":65087,"BSTAR":0.0009215785,"MEAN_MOTION_DOT":0.00001926,"MEAN_MOTION_DDOT":0},{"OBJECT_NAME":"FENGYUN 1C DEB","OBJECT_ID":"1999-025EHK","EPOCH":"2026-09-09T07:34:04.302048","MEAN_MOTION":13.1471225,"ECCENTRICITY":0.05080859,"INCLINATION":99.1458,"RA_OF_ASC_NODE":68.2598,"ARG_OF_PERICENTER":129.1993,"MEAN_ANOMALY":235.5394,"EPHEMERIS_TYPE":0,"CLASSIFICATION_TYPE":"U","NORAD_CAT_ID":37441,"ELEMENT_SET_NO":999,"REV_AT_EPOCH":85727,"BSTAR":0.00085075128,"MEAN_MOTION_DOT":0.00000577,"MEAN_MOTION_DDOT":0},{"OBJECT_NAME":"FENGYUN 1C DEB","OBJECT_ID":"1999-025EHN","EPOCH":"2026-09-10T13:56:47.034816","MEAN_MOTION":14.50050309,"ECCENTRICITY":0.0237854,"INCLINATION":99.0804,"RA_OF_ASC_NODE":359.8967,"ARG_OF_PERICENTER":255.5411,"MEAN_ANOMALY":101.9283,"EPHEMERIS_TYPE":0,"CLASSIFICATION_TYPE":"U","NORAD_CAT_ID":37444,"ELEMENT_SET_NO":999,"REV_AT_EPOCH":69088,"BSTAR":0.00029186,"MEAN_MOTION_DOT":0.00001559,"MEAN_MOTION_DDOT":0},{"OBJECT_NAME":"FENGYUN 1C DEB","OBJECT_ID":"1999-025EHP","EPOCH":"2026-09-11T02:13:40.614816","MEAN_MOTION":14.2807808,"ECCENTRICITY":0.01672052,"INCLINATION":99.2509,"RA_OF_ASC_NODE":348.2571,"ARG_OF_PERICENTER":230.2887,"MEAN_ANOMALY":128.3452,"EPHEMERIS_TYPE":0,"CLASSIFICATION_TYPE":"U","NORAD_CAT_ID":37445,"ELEMENT_SET_NO":999,"REV_AT_EPOCH":68326,"BSTAR":0.00032203097,"MEAN_MOTION_DOT":0.00000875,"MEAN_MOTION_DDOT":0},{"OBJECT_NAME":"FENGYUN 1C DEB","OBJECT_ID":"1999-025EHR","EPOCH":"2026-09-11T09:42:20.782944","MEAN_MOTION":14.18891825,"ECCENTRICITY":0.00408031,"INCLINATION":98.7693,"RA_OF_ASC_NODE":316.2545,"ARG_OF_PERICENTER":167.3187,"MEAN_ANOMALY":192.9025,"EPHEMERIS_TYPE":0,"CLASSIFICATION_TYPE":"U","NORAD_CAT_ID":37447,"ELEMENT_SET_NO":999,"REV_AT_EPOCH":67326,"BSTAR":0.0004054078,"MEAN_MOTION_DOT":0.00000807,"MEAN_MOTION_DDOT":0},{"OBJECT_NAME":"FENGYUN 1C DEB","OBJECT_ID":"1999-025EHS","EPOCH":"2026-09-09T10:41:11.610528","MEAN_MOTION":13.88306861,"ECCENTRICITY":0.03029269,"INCLINATION":99.3015,"RA_OF_ASC_NODE":321.6463,"ARG_OF_PERICENTER":51.7924,"MEAN_ANOMALY":311.0099,"EPHEMERIS_TYPE":0,"CLASSIFICATION_TYPE":"U","NORAD_CAT_ID":37448,"ELEMENT_SET_NO":999,"REV_AT_EPOCH":66130,"BSTAR":0.00058979201,"MEAN_MOTION_DOT":0.00000975,"MEAN_MOTION_DDOT":0},{"OBJECT_NAME":"FENGYUN 1C DEB","OBJECT_ID":"1999-025EHX","EPOCH":"2026-09-09T11:21:03.883968","MEAN_MOTION":13.68861072,"ECCENTRICITY":0.0355706,"INCLINATION":97.6393,"RA_OF_ASC_NODE":138.2579,"ARG_OF_PERICENTER":224.6606,"MEAN_ANOMALY":132.5387,"EPHEMERIS_TYPE":0,"CLASSIFICATION_TYPE":"U","NORAD_CAT_ID":37453,"ELEMENT_SET_NO":999,"REV_AT_EPOCH":93327,"BSTAR":0.0012482806,"MEAN_MOTION_DOT":0.00001643,"MEAN_MOTION_DDOT":0},{"OBJECT_NAME":"FENGYUN 1C DEB","OBJECT_ID":"1999-025EJB","EPOCH":"2026-09-09T11:20:37.861152","MEAN_MOTION":14.24553294,"ECCENTRICITY":0.00599719,"INCLINATION":99.0899,"RA_OF_ASC_NODE":334.8355,"ARG_OF_PERICENTER":21.2653,"MEAN_ANOMALY":339.0997,"EPHEMERIS_TYPE":0,"CLASSIFICATION_TYPE":"U","NORAD_CAT_ID":37457,"ELEMENT_SET_NO":999,"REV_AT_EPOCH":63923,"BSTAR":0.0010230603,"MEAN_MOTION_DOT":0.00002372,"MEAN_MOTION_DDOT":0},{"OBJECT_NAME":"FENGYUN 1C DEB","OBJECT_ID":"1999-025EJE","EPOCH":"2026-09-11T10:43:37.342272","MEAN_MOTION":14.51502341,"ECCENTRICITY":0.00524551,"INCLINATION":98.3902,"RA_OF_ASC_NODE":74.0124,"ARG_OF_PERICENTER":176.3595,"MEAN_ANOMALY":183.7992,"EPHEMERIS_TYPE":0,"CLASSIFICATION_TYPE":"U","NORAD_CAT_ID":37460,"ELEMENT_SET_NO":999,"REV_AT_EPOCH":86441,"BSTAR":0.0010464579,"MEAN_MOTION_DOT":0.00004213,"MEAN_MOTION_DDOT":0},{"OBJECT_NAME":"FENGYUN 1C DEB","OBJECT_ID":"1999-025EJF","EPOCH":"2026-09-11T09:02:36.713184","MEAN_MOTION":12.79809033,"ECCENTRICITY":0.06606974,"INCLINATION":99.8627,"RA_OF_ASC_NODE":115.2257,"ARG_OF_PERICENTER":88.2607,"MEAN_ANOMALY":279.3993,"EPHEMERIS_TYPE":0,"CLASSIFICATION_TYPE":"U","NORAD_CAT_ID":37461,"ELEMENT_SET_NO":999,"REV_AT_EPOCH":55521,"BSTAR":0.0022034559,"MEAN_MOTION_DOT":0.00001228,"MEAN_MOTION_DDOT":0},{"OBJECT_NAME":"FENGYUN 1C DEB","OBJECT_ID":"1999-025EJJ","EPOCH":"2026-09-05T17:39:08.178048","MEAN_MOTION":13.48657445,"ECCENTRICITY":0.04484615,"INCLINATION":102.7147,"RA_OF_ASC_NODE":250.4923,"ARG_OF_PERICENTER":251.8413,"MEAN_ANOMALY":103.3399,"EPHEMERIS_TYPE":0,"CLASSIFICATION_TYPE":"U","NORAD_CAT_ID":37464,"ELEMENT_SET_NO":999,"REV_AT_EPOCH":64519,"BSTAR":0.0011087704,"MEAN_MOTION_DOT":0.00001217,"MEAN_MOTION_DDOT":0},{"OBJECT_NAME":"FENGYUN 1C DEB","OBJECT_ID":"1999-025EJU","EPOCH":"2026-09-02T21:59:53.661120","MEAN_MOTION":14.79800731,"ECCENTRICITY":0.012297,"INCLINATION":99.1357,"RA_OF_ASC_NODE":131.7867,"ARG_OF_PERICENTER":31.1506,"MEAN_ANOMALY":329.6916,"EPHEMERIS_TYPE":0,"CLASSIFICATION_TYPE":"U","NORAD_CAT_ID":37474,"ELEMENT_SET_NO":999,"REV_AT_EPOCH":66277,"BSTAR":0.00062461,"MEAN_MOTION_DOT":0.00005276,"MEAN_MOTION_DDOT":0},{"OBJECT_NAME":"FENGYUN 1C DEB","OBJECT_ID":"1999-025EJW","EPOCH":"2026-09-09T17:03:08.053632","MEAN_MOTION":11.91550176,"ECCENTRICITY":0.10757982,"INCLINATION":98.9468,"RA_OF_ASC_NODE":196.7121,"ARG_OF_PERICENTER":58.7928,"MEAN_ANOMALY":311.4091,"EPHEMERIS_TYPE":0,"CLASSIFICATION_TYPE":"U","NORAD_CAT_ID":37476,"ELEMENT_SET_NO":999,"REV_AT_EPOCH":70670,"BSTAR":0.0014328088,"MEAN_MOTION_DOT":0.00000533,"MEAN_MOTION_DDOT":0},{"OBJECT_NAME":"FENGYUN 1C DEB","OBJECT_ID":"1999-025EJX","EPOCH":"2026-09-11T06:27:07.891776","MEAN_MOTION":14.20400674,"ECCENTRICITY":0.00385826,"INCLINATION":98.609,"RA_OF_ASC_NODE":256.5411,"ARG_OF_PERICENTER":40.1269,"MEAN_ANOMALY":320.2747,"EPHEMERIS_TYPE":0,"CLASSIFICATION_TYPE":"U","NORAD_CAT_ID":37477,"ELEMENT_SET_NO":999,"REV_AT_EPOCH":85782,"BSTAR":0.00049465962,"MEAN_MOTION_DOT":0.00001025,"MEAN_MOTION_DDOT":0},{"OBJECT_NAME":"FENGYUN 1C DEB","OBJECT_ID":"1999-025EJY","EPOCH":"2026-09-07T19:54:31.717728","MEAN_MOTION":13.03823487,"ECCENTRICITY":0.05483073,"INCLINATION":99.6535,"RA_OF_ASC_NODE":210.8972,"ARG_OF_PERICENTER":58.9517,"MEAN_ANOMALY":306.4239,"EPHEMERIS_TYPE":0,"CLASSIFICATION_TYPE":"U","NORAD_CAT_ID":37478,"ELEMENT_SET_NO":999,"REV_AT_EPOCH":60067,"BSTAR":0.0024801949,"MEAN_MOTION_DOT":0.00001584,"MEAN_MOTION_DDOT":0},{"OBJECT_NAME":"FENGYUN 1C DEB","OBJECT_ID":"1999-025EKH","EPOCH":"2026-08-30T23:07:20.167968","MEAN_MOTION":14.10479981,"ECCENTRICITY":0.01125544,"INCLINATION":99.0681,"RA_OF_ASC_NODE":152.5604,"ARG_OF_PERICENTER":252.6063,"MEAN_ANOMALY":106.2774,"EPHEMERIS_TYPE":0,"CLASSIFICATION_TYPE":"U","NORAD_CAT_ID":37589,"ELEMENT_SET_NO":999,"REV_AT_EPOCH":86264,"BSTAR":0.0015193837,"MEAN_MOTION_DOT":0.00002823,"MEAN_MOTION_DDOT":0},{"OBJECT_NAME":"FENGYUN 1C DEB","OBJECT_ID":"1999-025EKK","EPOCH":"2026-09-11T03:16:33.071232","MEAN_MOTION":14.62825493,"ECCENTRICITY":0.00580829,"INCLINATION":98.404,"RA_OF_ASC_NODE":208.5512,"ARG_OF_PERICENTER":232.5048,"MEAN_ANOMALY":184.0755,"EPHEMERIS_TYPE":0,"CLASSIFICATION_TYPE":"U","NORAD_CAT_ID":37591,"ELEMENT_SET_NO":999,"REV_AT_EPOCH":70435,"BSTAR":0.0017798193,"MEAN_MOTION_DOT":0.00009268,"MEAN_MOTION_DDOT":0},{"OBJECT_NAME":"FENGYUN 1C DEB","OBJECT_ID":"1999-025EKM","EPOCH":"2026-09-05T13:14:37.055328","MEAN_MOTION":14.38305098,"ECCENTRICITY":0.01480406,"INCLINATION":98.9975,"RA_OF_ASC_NODE":143.5672,"ARG_OF_PERICENTER":52.2708,"MEAN_ANOMALY":67.2978,"EPHEMERIS_TYPE":0,"CLASSIFICATION_TYPE":"U","NORAD_CAT_ID":37593,"ELEMENT_SET_NO":999,"REV_AT_EPOCH":89954,"BSTAR":0.00053617398,"MEAN_MOTION_DOT":0.00001801,"MEAN_MOTION_DDOT":0},{"OBJECT_NAME":"FENGYUN 1C DEB","OBJECT_ID":"1999-025EKN","EPOCH":"2026-09-11T12:11:00.202272","MEAN_MOTION":14.1134488,"ECCENTRICITY":0.0085089,"INCLINATION":98.7094,"RA_OF_ASC_NODE":281.0723,"ARG_OF_PERICENTER":214.723,"MEAN_ANOMALY":144.837,"EPHEMERIS_TYPE":0,"CLASSIFICATION_TYPE":"U","NORAD_CAT_ID":37594,"ELEMENT_SET_NO":999,"REV_AT_EPOCH":81609,"BSTAR":0.00017781057,"MEAN_MOTION_DOT":0.0000029,"MEAN_MOTION_DDOT":0},{"OBJECT_NAME":"FENGYUN 1C DEB","OBJECT_ID":"1999-025EKP","EPOCH":"2026-09-11T15:57:21.549600","MEAN_MOTION":14.86699066,"ECCENTRICITY":0.00157353,"INCLINATION":99.0394,"RA_OF_ASC_NODE":142.9572,"ARG_OF_PERICENTER":229.5521,"MEAN_ANOMALY":158.372,"EPHEMERIS_TYPE":0,"CLASSIFICATION_TYPE":"U","NORAD_CAT_ID":37595,"ELEMENT_SET_NO":999,"REV_AT_EPOCH":66641,"BSTAR":0.002573386,"MEAN_MOTION_DOT":0.00022929,"MEAN_MOTION_DDOT":0},{"OBJECT_NAME":"FENGYUN 1C DEB","OBJECT_ID":"1999-025EKU","EPOCH":"2026-09-11T04:45:26.975232","MEAN_MOTION":13.85680195,"ECCENTRICITY":0.03481646,"INCLINATION":98.928,"RA_OF_ASC_NODE":43.2423,"ARG_OF_PERICENTER":32.8948,"MEAN_ANOMALY":329.3363,"EPHEMERIS_TYPE":0,"CLASSIFICATION_TYPE":"U","NORAD_CAT_ID":37600,"ELEMENT_SET_NO":999,"REV_AT_EPOCH":92257,"BSTAR":0.0010099451,"MEAN_MOTION_DOT":0.00001817,"MEAN_MOTION_DDOT":0},{"OBJECT_NAME":"FENGYUN 1C DEB","OBJECT_ID":"1999-025EKX","EPOCH":"2026-09-06T22:02:41.290080","MEAN_MOTION":13.72913241,"ECCENTRICITY":0.0227593,"INCLINATION":98.5824,"RA_OF_ASC_NODE":233.5523,"ARG_OF_PERICENTER":3.0665,"MEAN_ANOMALY":357.1821,"EPHEMERIS_TYPE":0,"CLASSIFICATION_TYPE":"U","NORAD_CAT_ID":37682,"ELEMENT_SET_NO":999,"REV_AT_EPOCH":66112,"BSTAR":0.0010489,"MEAN_MOTION_DOT":0.00001126,"MEAN_MOTION_DDOT":0},{"OBJECT_NAME":"FENGYUN 1C DEB","OBJECT_ID":"1999-025EKY","EPOCH":"2026-09-09T10:23:57.253920","MEAN_MOTION":13.32937238,"ECCENTRICITY":0.05815118,"INCLINATION":97.9801,"RA_OF_ASC_NODE":119.029,"ARG_OF_PERICENTER":154.7989,"MEAN_ANOMALY":334.1431,"EPHEMERIS_TYPE":0,"CLASSIFICATION_TYPE":"U","NORAD_CAT_ID":37683,"ELEMENT_SET_NO":999,"REV_AT_EPOCH":32845,"BSTAR":0.00065730021,"MEAN_MOTION_DOT":0.0000081,"MEAN_MOTION_DDOT":0}]